#Datum;Uhrzeit;WR;Pac;DaySum;Status;WR;Pac;DaySum;Status;Pdc1;Udc;Temp;WR;Pac;DaySum;Status;Pdc1;Udc;Temp;WR;Pac;DaySum;Status;Pdc1;Udc;Temp;WR;Pac;DaySum;Status;Pdc1;Pdc2;Udc1;Udc2;Temp;WR;Pac;DaySum;Status;Pdc1;Pdc2;Udc1;Udc2;Temp;WR;Pac;DaySum;Status;Pdc1;Udc;Temp;WR;Pac;DaySum;Status;Pdc1;Udc;Temp;WR;Pac;DaySum;Status;Pdc1;Udc;Temp
10.11.18;23:55:00;1;401;9942;0;2;0;3159;0;0;0;0;3;0;1936;0;0;0;0;4;0;2655;0;0;0;0;5;0;6821;0;0;0;0;0;0;6;0;5058;0;0;0;0;0;0;7;0;3333;0;0;0;0;8;0;3360;0;0;0;0;9;0;1778;0;0;0;0
10.11.18;23:50:00;1;394;9909;0;2;0;3159;0;0;0;0;3;0;1936;0;0;0;0;4;0;2655;0;0;0;0;5;0;6821;0;0;0;0;0;0;6;0;5058;0;0;0;0;0;0;7;0;3333;0;0;0;0;8;0;3360;0;0;0;0;9;0;1778;0;0;0;0
10.11.18;23:45:00;1;400;9876;0;2;0;3159;0;0;0;0;3;0;1936;0;0;0;0;4;0;2655;0;0;0;0;5;0;6821;0;0;0;0;0;0;6;0;5058;0;0;0;0;0;0;7;0;3333;0;0;0;0;8;0;3360;0;0;0;0;9;0;1778;0;0;0;0
10.11.18;23:40:00;1;380;9842;0;2;0;3159;0;0;0;0;3;0;1936;0;0;0;0;4;0;2655;0;0;0;0;5;0;6821;0;0;0;0;0;0;6;0;5058;0;0;0;0;0;0;7;0;3333;0;0;0;0;8;0;3360;0;0;0;0;9;0;1778;0;0;0;0
10.11.18;23:35:00;1;364;9810;0;2;0;3159;0;0;0;0;3;0;1936;0;0;0;0;4;0;2655;0;0;0;0;5;0;6821;0;0;0;0;0;0;6;0;5058;0;0;0;0;0;0;7;0;3333;0;0;0;0;8;0;3360;0;0;0;0;9;0;1778;0;0;0;0
10.11.18;23:30:00;1;362;9780;0;2;0;3159;0;0;0;0;3;0;1936;0;0;0;0;4;0;2655;0;0;0;0;5;0;6821;0;0;0;0;0;0;6;0;5058;0;0;0;0;0;0;7;0;3333;0;0;0;0;8;0;3360;0;0;0;0;9;0;1778;0;0;0;0
10.11.18;23:25:00;1;315;9750;0;2;0;3159;0;0;0;0;3;0;1936;0;0;0;0;4;0;2655;0;0;0;0;5;0;6821;0;0;0;0;0;0;6;0;5058;0;0;0;0;0;0;7;0;3333;0;0;0;0;8;0;3360;0;0;0;0;9;0;1778;0;0;0;0
10.11.18;23:20:00;1;315;9723;0;2;0;3159;0;0;0;0;3;0;1936;0;0;0;0;4;0;2655;0;0;0;0;5;0;6821;0;0;0;0;0;0;6;0;5058;0;0;0;0;0;0;7;0;3333;0;0;0;0;8;0;3360;0;0;0;0;9;0;1778;0;0;0;0
10.11.18;23:15:00;1;315;9697;0;2;0;3159;0;0;0;0;3;0;1936;0;0;0;0;4;0;2655;0;0;0;0;5;0;6821;0;0;0;0;0;0;6;0;5058;0;0;0;0;0;0;7;0;3333;0;0;0;0;8;0;3360;0;0;0;0;9;0;1778;0;0;0;0
10.11.18;23:10:00;1;315;9671;0;2;0;3159;0;0;0;0;3;0;1936;0;0;0;0;4;0;2655;0;0;0;0;5;0;6821;0;0;0;0;0;0;6;0;5058;0;0;0;0;0;0;7;0;3333;0;0;0;0;8;0;3360;0;0;0;0;9;0;1778;0;0;0;0
10.11.18;23:05:00;1;316;9645;0;2;0;3159;0;0;0;0;3;0;1936;0;0;0;0;4;0;2655;0;0;0;0;5;0;6821;0;0;0;0;0;0;6;0;5058;0;0;0;0;0;0;7;0;3333;0;0;0;0;8;0;3360;0;0;0;0;9;0;1778;0;0;0;0
10.11.18;23:00:00;1;350;9618;0;2;0;3159;0;0;0;0;3;0;1936;0;0;0;0;4;0;2655;0;0;0;0;5;0;6821;0;0;0;0;0;0;6;0;5058;0;0;0;0;0;0;7;0;3333;0;0;0;0;8;0;3360;0;0;0;0;9;0;1778;0;0;0;0
10.11.18;22:55:00;1;355;9589;0;2;0;3159;0;0;0;0;3;0;1936;0;0;0;0;4;0;2655;0;0;0;0;5;0;6821;2;0;0;0;0;0;6;0;5058;2;0;0;0;0;0;7;0;3333;0;0;0;0;8;0;3360;0;0;0;0;9;0;1778;0;0;0;0
10.11.18;22:50:00;1;358;9559;0;2;0;3159;0;0;0;0;3;0;1936;0;0;0;0;4;0;2655;0;0;0;0;5;0;6821;2;0;0;0;0;0;6;0;5058;2;0;0;0;0;0;7;0;3333;0;0;0;0;8;0;3360;0;0;0;0;9;0;1778;0;0;0;0
10.11.18;22:45:00;1;361;9530;0;2;0;3159;0;0;0;0;3;0;1936;0;0;0;0;4;0;2655;0;0;0;0;5;0;6821;2;0;0;0;0;0;6;0;5058;2;0;0;0;0;0;7;0;3333;0;0;0;0;8;0;3360;0;0;0;0;9;0;1778;0;0;0;0
10.11.18;22:40:00;1;378;9500;0;2;0;3159;0;0;0;0;3;0;1936;0;0;0;0;4;0;2655;0;0;0;0;5;0;6821;2;0;0;0;0;0;6;0;5058;2;0;0;0;0;0;7;0;3333;0;0;0;0;8;0;3360;0;0;0;0;9;0;1778;0;0;0;0
10.11.18;22:35:00;1;379;9468;0;2;0;3159;0;0;0;0;3;0;1936;0;0;0;0;4;0;2655;0;0;0;0;5;0;6821;2;0;0;0;0;0;6;0;5058;2;0;0;0;0;0;7;0;3333;0;0;0;0;8;0;3360;0;0;0;0;9;0;1778;0;0;0;0
10.11.18;22:30:00;1;374;9437;0;2;0;3159;0;0;0;0;3;0;1936;0;0;0;0;4;0;2655;0;0;0;0;5;0;6821;2;0;0;0;0;0;6;0;5058;2;0;0;0;0;0;7;0;3333;0;0;0;0;8;0;3360;0;0;0;0;9;0;1778;0;0;0;0
10.11.18;22:25:00;1;370;9406;0;2;0;3159;0;0;0;0;3;0;1936;0;0;0;0;4;0;2655;0;0;0;0;5;0;6821;2;0;0;0;0;0;6;0;5058;2;0;0;0;0;0;7;0;3333;0;0;0;0;8;0;3360;0;0;0;0;9;0;1778;0;0;0;0
10.11.18;22:20:00;1;378;9374;0;2;0;3159;0;0;0;0;3;0;1936;0;0;0;0;4;0;2655;0;0;0;0;5;0;6821;2;0;0;0;0;0;6;0;5058;2;0;0;0;0;0;7;0;3333;0;0;0;0;8;0;3360;0;0;0;0;9;0;1778;0;0;0;0
10.11.18;22:15:00;1;382;9343;0;2;0;3159;0;0;0;0;3;0;1936;0;0;0;0;4;0;2655;0;0;0;0;5;0;6821;2;0;0;0;0;0;6;0;5058;2;0;0;0;0;0;7;0;3333;0;0;0;0;8;0;3360;0;0;0;0;9;0;1778;0;0;0;0
10.11.18;22:10:00;1;372;9311;0;2;0;3159;0;0;0;0;3;0;1936;0;0;0;0;4;0;2655;0;0;0;0;5;0;6821;2;0;0;0;0;0;6;0;5058;2;0;0;0;0;0;7;0;3333;0;0;0;0;8;0;3360;0;0;0;0;9;0;1778;0;0;0;0
10.11.18;22:05:00;1;389;9280;0;2;0;3159;0;0;0;0;3;0;1936;0;0;0;0;4;0;2655;0;0;0;0;5;0;6821;2;0;0;0;0;0;6;0;5058;2;0;0;0;0;0;7;0;3333;0;0;0;0;8;0;3360;0;0;0;0;9;0;1778;0;0;0;0
10.11.18;22:00:00;1;347;9248;0;2;0;3159;0;0;0;0;3;0;1936;0;0;0;0;4;0;2655;0;0;0;0;5;0;6821;2;0;0;0;0;0;6;0;5058;2;0;0;0;0;0;7;0;3333;0;0;0;0;8;0;3360;0;0;0;0;9;0;1778;0;0;0;0
10.11.18;21:55:00;1;355;9219;0;2;0;3159;0;0;0;0;3;0;1936;0;0;0;0;4;0;2655;0;0;0;0;5;0;6821;2;0;0;0;0;0;6;0;5058;2;0;0;0;0;0;7;0;3333;0;0;0;0;8;0;3360;0;0;0;0;9;0;1778;0;0;0;0
10.11.18;21:50:00;1;448;9189;0;2;0;3159;0;0;0;0;3;0;1936;0;0;0;0;4;0;2655;0;0;0;0;5;0;6821;2;0;0;0;0;0;6;0;5058;2;0;0;0;0;0;7;0;3333;0;0;0;0;8;0;3360;0;0;0;0;9;0;1778;0;0;0;0
10.11.18;21:45:00;1;314;9160;0;2;0;3159;0;0;0;0;3;0;1936;0;0;0;0;4;0;2655;0;0;0;0;5;0;6821;2;0;0;0;0;0;6;0;5058;2;0;0;0;0;0;7;0;3333;0;0;0;0;8;0;3360;0;0;0;0;9;0;1778;0;0;0;0
10.11.18;21:40:00;1;304;9133;0;2;0;3159;0;0;0;0;3;0;1936;0;0;0;0;4;0;2655;0;0;0;0;5;0;6821;2;0;0;0;0;0;6;0;5058;2;0;0;0;0;0;7;0;3333;0;0;0;0;8;0;3360;0;0;0;0;9;0;1778;0;0;0;0
10.11.18;21:35:00;1;280;9109;0;2;0;3159;0;0;0;0;3;0;1936;0;0;0;0;4;0;2655;0;0;0;0;5;0;6821;2;0;0;0;0;0;6;0;5058;2;0;0;0;0;0;7;0;3333;0;0;0;0;8;0;3360;0;0;0;0;9;0;1778;0;0;0;0
10.11.18;21:30:00;1;309;9084;0;2;0;3159;0;0;0;0;3;0;1936;0;0;0;0;4;0;2655;0;0;0;0;5;0;6821;2;0;0;0;0;0;6;0;5058;2;0;0;0;0;0;7;0;3333;0;0;0;0;8;0;3360;0;0;0;0;9;0;1778;0;0;0;0
10.11.18;21:25:00;1;308;9058;0;2;0;3159;0;0;0;0;3;0;1936;0;0;0;0;4;0;2655;0;0;0;0;5;0;6821;2;0;0;0;0;0;6;0;5058;2;0;0;0;0;0;7;0;3333;0;0;0;0;8;0;3360;0;0;0;0;9;0;1778;0;0;0;0
10.11.18;21:20:00;1;319;9032;0;2;0;3159;0;0;0;0;3;0;1936;0;0;0;0;4;0;2655;0;0;0;0;5;0;6821;2;0;0;0;0;0;6;0;5058;2;0;0;0;0;0;7;0;3333;0;0;0;0;8;0;3360;0;0;0;0;9;0;1778;0;0;0;0
10.11.18;21:15:00;1;317;9005;0;2;0;3159;0;0;0;0;3;0;1936;0;0;0;0;4;0;2655;0;0;0;0;5;0;6821;2;0;0;0;0;0;6;0;5058;2;0;0;0;0;0;7;0;3333;0;0;0;0;8;0;3360;0;0;0;0;9;0;1778;0;0;0;0
10.11.18;21:10:00;1;332;8978;0;2;0;3159;0;0;0;0;3;0;1936;0;0;0;0;4;0;2655;0;0;0;0;5;0;6821;2;0;0;0;0;0;6;0;5058;2;0;0;0;0;0;7;0;3333;0;0;0;0;8;0;3360;0;0;0;0;9;0;1778;0;0;0;0
10.11.18;21:05:00;1;364;8950;0;2;0;3159;0;0;0;0;3;0;1936;0;0;0;0;4;0;2655;0;0;0;0;5;0;6821;2;0;0;0;0;0;6;0;5058;2;0;0;0;0;0;7;0;3333;0;0;0;0;8;0;3360;0;0;0;0;9;0;1778;0;0;0;0
10.11.18;21:00:00;1;357;8920;0;2;0;3159;0;0;0;0;3;0;1936;0;0;0;0;4;0;2655;0;0;0;0;5;0;6821;2;0;0;0;0;0;6;0;5058;2;0;0;0;0;0;7;0;3333;0;0;0;0;8;0;3360;0;0;0;0;9;0;1778;0;0;0;0
10.11.18;20:55:00;1;366;8890;0;2;0;3159;0;0;0;0;3;0;1936;0;0;0;0;4;0;2655;0;0;0;0;5;0;6821;2;0;0;0;0;0;6;0;5058;2;0;0;0;0;0;7;0;3333;0;0;0;0;8;0;3360;0;0;0;0;9;0;1778;0;0;0;0
10.11.18;20:50:00;1;323;8860;0;2;0;3159;0;0;0;0;3;0;1936;0;0;0;0;4;0;2655;0;0;0;0;5;0;6821;2;0;0;0;0;0;6;0;5058;2;0;0;0;0;0;7;0;3333;0;0;0;0;8;0;3360;0;0;0;0;9;0;1778;0;0;0;0
10.11.18;20:45:00;1;320;8832;0;2;0;3159;0;0;0;0;3;0;1936;0;0;0;0;4;0;2655;0;0;0;0;5;0;6821;2;0;0;0;0;0;6;0;5058;2;0;0;0;0;0;7;0;3333;0;0;0;0;8;0;3360;0;0;0;0;9;0;1778;0;0;0;0
10.11.18;20:40:00;1;303;8806;0;2;0;3159;0;0;0;0;3;0;1936;0;0;0;0;4;0;2655;0;0;0;0;5;0;6821;2;0;0;0;0;0;6;0;5058;2;0;0;0;0;0;7;0;3333;0;0;0;0;8;0;3360;0;0;0;0;9;0;1778;0;0;0;0
10.11.18;20:35:00;1;358;8780;0;2;0;3159;0;0;0;0;3;0;1936;0;0;0;0;4;0;2655;0;0;0;0;5;0;6821;2;0;0;0;0;0;6;0;5058;2;0;0;0;0;0;7;0;3333;0;0;0;0;8;0;3360;0;0;0;0;9;0;1778;0;0;0;0
10.11.18;20:30:00;1;602;8749;0;2;0;3159;0;0;0;0;3;0;1936;0;0;0;0;4;0;2655;0;0;0;0;5;0;6821;2;0;0;0;0;0;6;0;5058;2;0;0;0;0;0;7;0;3333;0;0;0;0;8;0;3360;0;0;0;0;9;0;1778;0;0;0;0
10.11.18;20:25:00;1;637;8698;0;2;0;3159;0;0;0;0;3;0;1936;0;0;0;0;4;0;2655;0;0;0;0;5;0;6821;2;0;0;0;0;0;6;0;5058;2;0;0;0;0;0;7;0;3333;0;0;0;0;8;0;3360;0;0;0;0;9;0;1778;0;0;0;0
10.11.18;20:20:00;1;687;8645;0;2;0;3159;0;0;0;0;3;0;1936;0;0;0;0;4;0;2655;0;0;0;0;5;0;6821;2;0;0;0;0;0;6;0;5058;2;0;0;0;0;0;7;0;3333;0;0;0;0;8;0;3360;0;0;0;0;9;0;1778;0;0;0;0
10.11.18;20:15:00;1;667;8587;0;2;0;3159;0;0;0;0;3;0;1936;0;0;0;0;4;0;2655;0;0;0;0;5;0;6821;2;0;0;0;0;0;6;0;5058;2;0;0;0;0;0;7;0;3333;0;0;0;0;8;0;3360;0;0;0;0;9;0;1778;0;0;0;0
10.11.18;20:10:00;1;777;8530;0;2;0;3159;0;0;0;0;3;0;1936;0;0;0;0;4;0;2655;0;0;0;0;5;0;6821;2;0;0;0;0;0;6;0;5058;2;0;0;0;0;0;7;0;3333;0;0;0;0;8;0;3360;0;0;0;0;9;0;1778;0;0;0;0
10.11.18;20:05:00;1;704;8466;0;2;0;3159;0;0;0;0;3;0;1936;0;0;0;0;4;0;2655;0;0;0;0;5;0;6821;2;0;0;0;0;0;6;0;5058;2;0;0;0;0;0;7;0;3333;0;0;0;0;8;0;3360;0;0;0;0;9;0;1778;0;0;0;0
10.11.18;20:00:00;1;734;8406;0;2;0;3159;0;0;0;0;3;0;1936;0;0;0;0;4;0;2655;0;0;0;0;5;0;6821;2;0;0;0;0;0;6;0;5058;2;0;0;0;0;0;7;0;3333;0;0;0;0;8;0;3360;0;0;0;0;9;0;1778;0;0;0;0
10.11.18;19:55:00;1;843;8343;0;2;0;3159;0;0;0;0;3;0;1936;0;0;0;0;4;0;2655;0;0;0;0;5;0;6821;2;0;0;0;0;0;6;0;5058;2;0;0;0;0;0;7;0;3333;0;0;0;0;8;0;3360;0;0;0;0;9;0;1778;0;0;0;0
10.11.18;19:50:00;1;843;8273;0;2;0;3159;0;0;0;0;3;0;1936;0;0;0;0;4;0;2655;0;0;0;0;5;0;6821;2;0;0;0;0;0;6;0;5058;2;0;0;0;0;0;7;0;3333;0;0;0;0;8;0;3360;0;0;0;0;9;0;1778;0;0;0;0
10.11.18;19:45:00;1;844;8202;0;2;0;3159;0;0;0;0;3;0;1936;0;0;0;0;4;0;2655;0;0;0;0;5;0;6821;2;0;0;0;0;0;6;0;5058;2;0;0;0;0;0;7;0;3333;0;0;0;0;8;0;3360;0;0;0;0;9;0;1778;0;0;0;0
10.11.18;19:40:00;1;783;8132;0;2;0;3159;0;0;0;0;3;0;1936;0;0;0;0;4;0;2655;0;0;0;0;5;0;6821;2;0;0;0;0;0;6;0;5058;2;0;0;0;0;0;7;0;3333;0;0;0;0;8;0;3360;0;0;0;0;9;0;1778;0;0;0;0
10.11.18;19:35:00;1;636;8067;0;2;0;3159;0;0;0;0;3;0;1936;0;0;0;0;4;0;2655;0;0;0;0;5;0;6821;2;0;0;0;0;0;6;0;5058;2;0;0;0;0;0;7;0;3333;0;0;0;0;8;0;3360;0;0;0;0;9;0;1778;0;0;0;0
10.11.18;19:30:00;1;555;8016;0;2;0;3159;0;0;0;0;3;0;1936;0;0;0;0;4;0;2655;0;0;0;0;5;0;6821;2;0;0;0;0;0;6;0;5058;2;0;0;0;0;0;7;0;3333;0;0;0;0;8;0;3360;0;0;0;0;9;0;1778;0;0;0;0
10.11.18;19:25:00;1;587;7970;0;2;0;3159;0;0;0;0;3;0;1936;0;0;0;0;4;0;2655;0;0;0;0;5;0;6821;2;0;0;0;0;0;6;0;5058;2;0;0;0;0;0;7;0;3333;0;0;0;0;8;0;3360;0;0;0;0;9;0;1778;0;0;0;0
10.11.18;19:20:00;1;667;7921;0;2;0;3159;0;0;0;0;3;0;1936;0;0;0;0;4;0;2655;0;0;0;0;5;0;6821;2;0;0;0;0;0;6;0;5058;2;0;0;0;0;0;7;0;3333;0;0;0;0;8;0;3360;0;0;0;0;9;0;1778;0;0;0;0
10.11.18;19:15:00;1;636;7869;0;2;0;3159;0;0;0;0;3;0;1936;0;0;0;0;4;0;2655;0;0;0;0;5;0;6821;2;0;0;0;0;0;6;0;5058;2;0;0;0;0;0;7;0;3333;0;0;0;0;8;0;3360;0;0;0;0;9;0;1778;0;0;0;0
10.11.18;19:10:00;1;2012;7816;0;2;0;3159;0;0;0;0;3;0;1936;0;0;0;0;4;0;2655;0;0;0;0;5;0;6821;2;0;0;0;0;0;6;0;5058;2;0;0;0;0;0;7;0;3333;0;0;0;0;8;0;3360;0;0;0;0;9;0;1778;0;0;0;0
10.11.18;19:05:00;1;653;7635;0;2;0;3159;0;0;0;0;3;0;1936;0;0;0;0;4;0;2655;0;0;0;0;5;0;6821;2;0;0;0;0;0;6;0;5058;2;0;0;0;0;0;7;0;3333;0;0;0;0;8;0;3360;0;0;0;0;9;0;1778;0;0;0;0
10.11.18;19:00:00;1;637;7580;0;2;0;3159;0;0;0;0;3;0;1936;0;0;0;0;4;0;2655;0;0;0;0;5;0;6821;2;0;0;0;0;0;6;0;5058;2;0;0;0;0;0;7;0;3333;0;0;0;0;8;0;3360;0;0;0;0;9;0;1778;0;0;0;0
10.11.18;18:55:00;1;582;7527;0;2;0;3159;0;0;0;0;3;0;1936;0;0;0;0;4;0;2655;0;0;0;0;5;0;6821;2;0;0;0;0;0;6;0;5058;2;0;0;0;0;0;7;0;3333;0;0;0;0;8;0;3360;0;0;0;0;9;0;1778;0;0;0;0
10.11.18;18:50:00;1;562;7478;0;2;0;3159;0;0;0;0;3;0;1936;0;0;0;0;4;0;2655;0;0;0;0;5;0;6821;2;0;0;0;0;0;6;0;5058;2;0;0;0;0;0;7;0;3333;0;0;0;0;8;0;3360;0;0;0;0;9;0;1778;0;0;0;0
10.11.18;18:45:00;1;562;7431;0;2;0;3159;0;0;0;0;3;0;1936;0;0;0;0;4;0;2655;0;0;0;0;5;0;6821;2;0;0;0;0;0;6;0;5058;2;0;0;0;0;0;7;0;3333;0;0;0;0;8;0;3360;0;0;0;0;9;0;1778;0;0;0;0
10.11.18;18:40:00;1;2119;7284;0;2;0;3159;0;0;0;0;3;0;1936;0;0;0;0;4;0;2655;0;0;0;0;5;0;6821;2;0;0;0;0;0;6;0;5058;2;0;0;0;0;0;7;0;3333;0;0;0;0;8;0;3360;0;0;0;0;9;0;1778;0;0;0;0
10.11.18;18:35:00;1;558;7114;0;2;0;3159;0;0;0;0;3;0;1936;0;0;0;0;4;0;2655;0;0;0;0;5;0;6821;2;0;0;0;0;0;6;0;5058;2;0;0;0;0;0;7;0;3333;0;0;0;0;8;0;3360;0;0;0;0;9;0;1778;0;0;0;0
10.11.18;18:30:00;1;558;7067;0;2;0;3159;0;0;0;0;3;0;1936;0;0;0;0;4;0;2655;0;0;0;0;5;0;6821;2;0;0;0;0;0;6;0;5058;2;0;0;0;0;0;7;0;3333;0;0;0;0;8;0;3360;0;0;0;0;9;0;1778;0;0;0;0
10.11.18;18:25:00;1;558;7021;0;2;0;3159;0;0;0;0;3;0;1936;0;0;0;0;4;0;2655;0;0;0;0;5;0;6821;2;0;0;0;0;0;6;0;5058;2;0;0;0;0;0;7;0;3333;0;0;0;0;8;0;3360;0;0;0;0;9;0;1778;0;0;0;0
10.11.18;18:20:00;1;592;6974;0;2;0;3159;0;0;0;0;3;0;1936;0;0;0;0;4;0;2655;0;0;0;0;5;0;6821;2;0;0;0;0;0;6;0;5058;2;0;0;0;0;0;7;0;3333;0;0;0;0;8;0;3360;0;0;0;0;9;0;1778;0;0;0;0
10.11.18;18:15:00;1;592;6924;0;2;0;3159;0;0;0;0;3;0;1936;0;0;0;0;4;0;2655;0;0;0;0;5;0;6821;2;0;0;0;0;0;6;0;5058;2;0;0;0;0;0;7;0;3333;0;0;0;0;8;0;3360;0;0;0;0;9;0;1778;0;0;0;0
10.11.18;18:10:00;1;595;6875;0;2;0;3159;0;0;0;0;3;0;1936;0;0;0;0;4;0;2655;0;0;0;0;5;0;6821;2;0;0;0;0;0;6;0;5058;2;0;0;0;0;0;7;0;3333;0;0;0;0;8;0;3360;0;0;0;0;9;0;1778;0;0;0;0
10.11.18;18:05:00;1;596;6825;0;2;0;3159;0;0;0;0;3;0;1936;0;0;0;0;4;0;2655;0;0;0;0;5;0;6821;2;0;0;0;0;0;6;0;5058;2;0;0;0;0;0;7;0;3333;0;0;0;0;8;0;3360;0;0;0;0;9;0;1778;0;0;0;0
10.11.18;18:00:00;1;618;6775;0;2;0;3159;0;0;0;0;3;0;1936;0;0;0;0;4;0;2655;0;0;0;0;5;0;6821;2;0;0;0;0;0;6;0;5058;2;0;0;0;0;0;7;0;3333;0;0;0;0;8;0;3360;0;0;0;0;9;0;1778;0;0;0;0
10.11.18;17:55:00;1;586;6725;0;2;0;3159;0;0;0;0;3;0;1936;0;0;0;0;4;0;2655;0;0;0;0;5;0;6821;2;0;0;0;0;0;6;0;5058;2;0;0;0;0;0;7;0;3333;0;0;0;0;8;0;3360;0;0;0;0;9;0;1778;0;0;0;0
10.11.18;17:50:00;1;583;6676;0;2;0;3159;0;0;0;0;3;0;1936;0;0;0;0;4;0;2655;0;0;0;0;5;0;6821;2;0;0;0;0;0;6;0;5058;2;0;0;0;0;0;7;0;3333;0;0;0;0;8;0;3360;0;0;0;0;9;0;1778;0;0;0;0
10.11.18;17:45:00;1;583;6627;0;2;0;3159;0;0;0;0;3;0;1936;0;0;0;0;4;0;2655;0;0;0;0;5;0;6821;2;0;0;0;0;0;6;0;5058;2;0;0;0;0;0;7;0;3333;0;0;0;0;8;0;3360;0;0;0;0;9;0;1778;0;0;0;0
10.11.18;17:40:00;1;645;6577;0;2;0;3159;0;0;0;0;3;0;1936;0;0;0;0;4;0;2655;0;0;0;0;5;0;6821;2;0;0;0;0;0;6;0;5058;2;0;0;0;0;0;7;0;3333;0;0;0;0;8;0;3360;0;0;0;0;9;0;1778;0;0;0;0
10.11.18;17:35:00;1;646;6523;0;2;0;3159;0;0;0;0;3;0;1936;0;0;0;0;4;0;2655;0;0;0;0;5;0;6821;2;0;0;0;0;0;6;0;5058;2;0;0;0;0;0;7;0;3333;0;0;0;0;8;0;3360;0;0;0;0;9;0;1778;0;0;0;0
10.11.18;17:30:00;1;643;6469;0;2;0;3159;0;0;0;0;3;0;1936;0;0;0;0;4;0;2655;0;0;0;0;5;0;6821;2;0;0;0;0;0;6;0;5058;2;0;0;0;0;0;7;0;3333;0;0;0;0;8;0;3360;0;0;0;0;9;0;1778;0;0;0;0
10.11.18;17:25:00;1;658;6416;0;2;0;3159;0;0;0;0;3;0;1936;0;0;0;0;4;0;2655;0;0;0;0;5;0;6821;2;0;0;0;0;0;6;0;5058;2;0;0;0;0;0;7;0;3333;0;0;0;0;8;0;3360;0;0;0;0;9;0;1778;0;0;0;0
10.11.18;17:20:00;1;684;6360;0;2;0;3159;0;0;0;0;3;0;1936;0;0;0;0;4;0;2655;0;0;0;0;5;0;6821;2;0;0;0;0;0;6;0;5058;2;0;0;0;0;0;7;0;3333;0;0;0;0;8;0;3360;0;0;0;0;9;0;1778;0;0;0;0
10.11.18;17:15:00;1;686;6300;0;2;0;3159;0;0;0;0;3;0;1936;0;0;0;0;4;0;2655;0;0;0;0;5;0;6821;2;0;0;0;0;0;6;0;5058;2;0;0;0;0;0;7;0;3333;0;0;0;0;8;0;3360;0;0;0;0;9;0;1778;0;0;0;0
10.11.18;17:10:00;1;675;6243;0;2;0;3159;0;0;0;0;3;0;1936;0;0;0;0;4;0;2655;0;0;0;0;5;0;6821;2;0;0;0;0;0;6;0;5058;2;0;0;0;0;0;7;0;3333;0;0;0;0;8;0;3360;0;0;0;0;9;0;1778;0;0;0;0
10.11.18;17:05:00;1;658;6184;0;2;0;3159;0;0;0;0;3;0;1936;0;0;0;0;4;0;2655;0;0;0;0;5;0;6821;2;0;0;0;0;0;6;0;5058;2;0;0;0;0;0;7;0;3333;0;0;0;0;8;0;3360;0;0;0;0;9;0;1778;0;0;0;0
10.11.18;17:00:00;1;719;6128;0;2;0;3159;0;0;0;0;3;0;1936;0;0;0;0;4;0;2655;0;0;0;0;5;0;6821;2;0;0;0;0;0;6;0;5058;2;0;0;0;0;0;7;0;3333;0;0;0;0;8;0;3360;0;0;0;0;9;0;1778;0;0;0;0
10.11.18;16:55:00;1;860;6067;0;2;0;3159;0;0;0;0;3;0;1936;0;0;0;0;4;0;2655;0;0;0;0;5;0;6821;2;0;0;0;0;0;6;0;5058;2;0;0;0;0;0;7;0;3333;0;0;0;0;8;0;3360;0;0;0;0;9;0;1778;0;0;0;0
10.11.18;16:50:00;1;609;5989;0;2;0;3159;0;0;71;4;3;0;1936;0;0;233;16;4;0;2655;0;0;0;0;5;0;6821;2;0;0;0;0;0;6;0;5058;2;0;0;0;0;0;7;0;3333;0;0;0;0;8;0;3360;0;0;0;0;9;0;1778;0;0;0;0
10.11.18;16:45:00;1;684;5937;0;2;0;3159;6;0;267;16;3;0;1936;6;0;301;19;4;0;2655;0;0;45;11;5;0;6821;2;0;0;0;0;0;6;0;5058;2;0;0;0;0;0;7;0;3333;0;0;0;0;8;0;3360;0;0;0;0;9;0;1778;0;0;0;0
10.11.18;16:40:00;1;668;5876;0;2;0;3159;6;0;316;16;3;0;1936;6;0;383;19;4;0;2655;1;0;110;17;5;0;6821;2;0;0;234;238;22;6;0;5058;2;2;4;239;119;18;7;0;3333;0;0;0;0;8;0;3360;0;0;41;3;9;0;1778;0;0;88;5
10.11.18;16:35:00;1;553;5815;0;2;0;3159;6;0;336;16;3;0;1936;6;1;386;19;4;0;2655;1;0;135;17;5;0;6821;26;0;0;360;359;27;6;0;5058;23;4;8;324;329;26;7;0;3333;0;0;0;0;8;0;3360;6;0;269;20;9;0;1778;0;0;0;0
10.11.18;16:30:00;1;729;5764;0;2;0;3159;6;0;365;17;3;0;1936;6;1;443;19;4;0;2655;1;0;179;18;5;8;6821;1;0;2;387;588;27;6;0;5058;23;7;2;181;531;27;7;0;3333;0;0;119;6;8;0;3360;6;0;347;20;9;0;1778;6;0;175;8
10.11.18;16:25:00;1;1742;5696;0;2;0;3159;6;0;375;17;3;2;1936;4;5;413;20;4;0;2655;1;0;196;18;5;0;6820;1;0;0;408;640;27;6;0;5058;23;3;8;368;547;27;7;0;3333;6;0;376;20;8;0;3360;6;0;186;10;9;0;1778;0;0;0;0
10.11.18;16:20:00;1;599;5631;0;2;0;3159;6;0;391;17;3;2;1936;3;6;457;20;4;0;2655;1;0;221;18;5;10;6819;1;1;3;409;651;28;6;0;5058;23;1;7;449;566;28;7;0;3333;3;1;406;21;8;0;3360;3;1;410;20;9;0;1778;6;0;454;16
10.11.18;16:15:00;1;600;5581;0;2;0;3159;6;0;399;17;3;0;1936;6;0;509;20;4;0;2655;3;0;199;19;5;0;6818;1;0;0;425;681;28;6;50;5058;4;7;60;515;493;29;7;0;3333;6;0;447;21;8;0;3360;6;0;451;20;9;3;1778;3;3;434;17
10.11.18;16:10:00;1;556;5525;0;2;4;3159;6;8;406;18;3;1;1936;6;6;508;20;4;5;2655;3;5;206;19;5;90;6816;4;12;27;413;665;29;6;81;5053;4;23;56;515;493;29;7;3;3333;6;8;438;21;8;1;3360;6;4;459;21;9;0;1778;6;3;505;17
10.11.18;16:05:00;1;557;5478;0;2;0;3158;6;0;418;18;3;7;1936;6;20;452;20;4;6;2655;3;6;199;19;5;117;6808;4;24;33;413;665;29;6;97;5046;4;30;61;515;493;29;7;0;3333;6;0;479;21;8;0;3360;6;0;480;21;9;0;1778;6;0;530;17
10.11.18;16:00:00;1;555;5432;0;2;58;3158;4;80;359;19;3;3;1935;6;9;522;21;4;22;2654;3;23;198;19;5;148;6798;4;43;55;413;664;29;6;124;5037;4;53;81;515;493;29;7;0;3333;0;0;166;7;8;6;3360;6;14;285;14;9;1;1778;6;5;427;14
10.11.18;15:55:00;1;555;5383;0;2;68;3153;4;94;350;19;3;0;1934;6;0;550;21;4;23;2653;3;24;198;19;5;176;6785;4;70;70;413;665;29;6;145;5026;4;70;97;515;493;29;7;21;3333;6;36;424;22;8;17;3360;0;37;177;10;9;0;1778;0;0;0;0
10.11.18;15:50:00;1;557;5337;0;2;115;3148;4;141;366;19;3;64;1934;4;98;439;21;4;75;2650;3;78;199;19;5;273;6769;4;112;110;413;664;29;6;204;5014;4;89;114;515;493;29;7;100;3331;4;128;404;22;8;101;3357;4;128;387;21;9;7;1778;6;12;263;8
10.11.18;15:45:00;1;560;5290;0;2;124;3138;4;151;370;19;3;72;1929;4;108;451;22;4;86;2644;3;89;200;19;5;295;6746;4;125;121;413;665;29;6;222;4996;4;95;122;515;493;29;7;126;3322;4;163;431;22;8;127;3349;4;161;431;21;9;68;1775;4;90;454;18
10.11.18;15:40:00;1;685;5238;0;2;144;3128;4;171;371;19;3;84;1923;4;119;465;22;4;103;2637;5;107;217;19;5;339;6720;4;151;141;413;665;29;6;247;4977;4;106;131;515;493;29;7;111;3312;4;138;376;18;8;119;3339;4;142;376;17;9;76;1769;4;100;451;18
10.11.18;15:35:00;1;512;5182;0;2;163;3116;4;189;378;20;3;90;1916;4;133;494;22;4;124;2628;5;129;216;19;5;366;6692;4;167;149;413;665;29;6;261;4956;4;106;135;515;493;29;7;148;3301;4;174;392;22;8;147;3327;4;178;431;21;9;36;1763;4;47;215;9
10.11.18;15:30:00;1;568;5133;0;2;175;3102;4;204;363;20;3;103;1908;4;140;489;22;4;132;2617;5;137;219;20;5;403;6659;4;185;168;413;664;29;6;291;4933;4;128;160;514;492;29;7;174;3288;4;202;391;22;8;173;3314;4;208;423;22;9;63;1755;0;80;316;12
10.11.18;15:25:00;1;688;5086;0;2;188;3087;4;213;370;20;3;110;1900;4;147;482;22;4;136;2606;5;142;219;20;5;403;6625;4;193;173;375;664;29;6;294;4908;4;121;144;515;493;29;7;175;3274;4;216;407;22;8;184;3300;4;220;423;22;9;102;1750;4;125;474;19
10.11.18;15:20:00;1;631;5032;0;2;222;3072;4;251;377;20;3;132;1890;4;171;486;22;4;173;2595;5;180;225;20;5;487;6589;4;231;215;387;626;29;6;356;4882;4;159;193;515;540;29;7;233;3259;4;273;447;22;8;241;3284;4;275;432;22;9;127;1741;4;156;496;19
10.11.18;15:15:00;1;622;4977;0;2;240;3053;4;271;374;20;3;147;1879;4;183;470;22;4;186;2580;5;193;223;20;5;513;6549;4;253;224;403;617;29;6;380;4852;4;174;187;544;529;29;7;244;3239;4;279;471;22;8;265;3264;4;298;459;22;9;138;1730;4;164;498;19
10.11.18;15:10:00;1;646;4926;0;2;299;3033;4;333;382;21;3;183;1867;4;223;489;23;4;244;2564;5;254;228;20;5;619;6503;4;300;273;401;622;29;6;464;4818;4;229;259;565;540;29;7;302;3218;4;341;476;22;8;311;3242;4;354;464;22;9;137;1715;0;162;393;15
10.11.18;15:05:00;1;646;4873;0;2;340;3008;4;374;394;21;3;210;1852;4;252;490;23;4;285;2545;5;296;229;20;5;699;6452;4;350;310;408;617;29;6;524;4780;4;265;300;576;551;29;7;384;3193;4;413;467;22;8;373;3217;4;411;467;22;9;202;1705;4;229;510;19
10.11.18;15:00:00;1;649;4819;0;2;504;2980;4;541;393;21;3;310;1835;4;357;503;23;4;416;2521;5;434;232;20;5;965;6390;4;482;423;411;641;29;6;728;4733;4;376;408;574;557;29;7;168;3160;4;186;182;8;8;471;3185;4;519;461;22;9;209;1688;4;232;412;15
10.11.18;14:55:00;1;640;4746;0;2;547;2939;4;582;395;21;3;337;1810;4;385;514;23;4;469;2487;5;488;233;20;5;1113;6308;4;560;482;413;680;29;6;835;4672;4;454;464;576;558;29;7;484;3125;4;532;463;22;8;501;3147;4;538;464;22;9;266;1668;4;306;514;19
10.11.18;14:50:00;1;645;4693;0;2;393;2894;4;429;390;21;3;245;1782;4;287;494;23;4;344;2449;5;358;230;20;5;897;6216;4;451;387;412;641;29;6;681;4602;4;338;360;568;550;29;7;502;3085;4;541;459;22;8;506;3106;4;549;467;22;9;271;1646;4;306;506;19
10.11.18;14:45:00;1;647;4639;0;2;363;2861;4;398;390;21;3;224;1761;4;266;494;23;4;302;2420;5;314;233;20;5;779;6144;4;385;343;402;639;29;6;584;4546;4;283;303;577;550;29;7;426;3043;4;465;443;22;8;434;3064;4;468;463;22;9;229;1623;4;265;506;19
10.11.18;14:40:00;1;692;4584;0;2;396;2830;4;431;386;21;3;245;1742;4;287;503;23;4;331;2394;5;345;231;20;5;835;6076;4;415;368;405;631;29;6;631;4496;4;306;331;565;559;29;7;433;3007;4;467;461;22;8;289;3027;4;312;308;14;9;232;1604;4;264;500;19
10.11.18;14:35:00;1;620;4532;0;2;440;2797;4;475;386;21;3;273;1722;4;311;490;23;4;362;2367;5;376;232;20;5;903;6006;4;442;387;416;631;29;6;663;4443;4;335;355;575;551;29;7;460;2971;4;500;451;22;8;466;2990;4;501;451;22;9;0;1566;0;0;0;0
10.11.18;14:30:00;1;528;4481;0;2;669;2760;4;712;397;21;3;417;1699;4;467;503;23;4;565;2336;5;588;236;20;5;1292;5925;4;664;567;415;658;29;6;991;4382;4;518;544;586;557;29;7;357;2931;4;376;236;11;8;549;2951;4;589;398;18;9;362;1566;4;403;508;19
10.11.18;14:25:00;1;530;4437;0;2;552;2704;4;593;403;21;3;350;1664;4;395;498;23;4;514;2289;5;536;232;20;5;1293;5815;4;665;568;420;670;29;6;1002;4298;4;511;517;577;560;29;7;557;2874;4;612;475;22;8;237;2875;0;257;226;11;9;316;1536;4;351;502;19
10.11.18;14:20:00;1;495;4393;0;2;453;2661;4;491;393;21;3;280;1636;4;324;499;23;4;378;2249;5;393;234;20;5;943;5725;4;475;416;409;629;29;6;711;4230;4;348;364;567;553;29;7;482;2830;4;513;465;22;8;481;2848;4;519;453;22;9;255;1511;4;289;502;19
10.11.18;14:15:00;1;486;4351;0;2;481;2623;4;518;386;21;3;299;1613;4;343;490;23;4;408;2217;5;425;232;20;5;1004;5646;4;506;440;413;645;29;6;767;4170;4;450;472;578;555;29;7;520;2790;4;559;455;22;8;524;2808;4;560;463;22;9;276;1490;4;313;510;19
10.11.18;14:10:00;1;489;4310;0;2;507;2583;4;544;386;21;3;316;1588;4;358;488;23;4;428;2183;5;445;232;20;5;1073;5561;4;539;471;412;650;29;6;812;4106;4;398;423;579;558;29;7;534;2747;4;581;465;22;8;450;2765;4;487;390;18;9;287;1467;4;325;526;19
10.11.18;14:05:00;1;487;4269;0;2;533;2541;4;570;395;21;3;329;1562;4;374;486;23;4;452;2147;5;470;237;20;5;1110;5472;4;569;485;412;638;29;6;844;4038;4;392;395;592;559;29;7;552;2702;4;604;467;22;8;571;2720;4;613;476;22;9;305;1443;4;339;514;19
10.11.18;14:00:00;1;489;4228;0;2;521;2496;4;559;395;21;3;323;1534;4;370;492;23;4;447;2110;5;465;232;20;5;1117;5378;4;561;486;411;661;29;6;845;3966;4;427;440;575;558;29;7;554;2656;4;595;462;22;8;555;2672;4;601;467;22;9;175;1404;0;201;309;11
10.11.18;13:55:00;1;489;4187;0;2;543;2452;4;584;395;21;3;334;1507;4;384;498;23;4;466;2072;5;486;237;20;5;1142;5285;4;584;488;413;682;29;6;873;3896;4;432;449;578;552;29;7;564;2610;4;625;467;22;8;584;2626;4;617;467;22;9;308;1392;4;347;510;19
10.11.18;13:50:00;1;463;4147;0;2;545;2407;4;586;397;21;3;340;1479;4;384;485;22;4;472;2033;5;491;234;20;5;1161;5189;4;590;509;409;643;29;6;889;3822;4;453;464;578;553;29;7;585;2562;4;633;465;22;8;592;2576;4;637;473;22;9;315;1366;4;356;516;19
10.11.18;13:45:00;1;426;4109;0;2;542;2361;4;581;382;21;3;339;1451;4;384;487;22;4;471;1994;5;491;232;20;5;1177;5091;4;604;513;415;643;29;6;891;3748;4;458;465;590;561;29;7;556;2514;4;603;475;22;8;559;2527;4;602;476;22;9;299;1340;4;336;530;19